This is the latest recevied weather packets stored in our database for station/object DC0VZ-6. If no packets are shown the sender has not sent any weather packets the latest 10 day(s).
| Time | Temp. | Humidity | Pressure | Rain* | Wind** | Luminosity | Snow |
|---|---|---|---|---|---|---|---|
| 1777502771 | 11.67° C | 5% | 991.9 hPa | 0 mm | - | - | - |
| 1777502171 | 12.22° C | 5% | 991.8 hPa | 0 mm | - | - | - |
| 1777501571 | 12.22° C | 5% | 991.8 hPa | 0 mm | - | - | - |
| 1777500970 | 12.22° C | 5% | 991.8 hPa | 0 mm | - | - | - |
| 1777500370 | 12.78° C | 5% | 991.8 hPa | 0 mm | - | - | - |
| 1777499770 | 12.78° C | 5% | 991.6 hPa | 0 mm | - | - | - |
| 1777499172 | 12.78° C | 5% | 991.6 hPa | 0 mm | - | - | - |
| 1777498570 | 13.33° C | 5% | 991.4 hPa | 0 mm | - | - | - |
| 1777497970 | 12.78° C | 5% | 991.4 hPa | 0 mm | - | - | - |
| 1777497370 | 12.78° C | 5% | 991.2 hPa | 0 mm | - | - | - |
| 1777496770 | 12.78° C | 5% | 991.2 hPa | 0 mm | - | - | - |
| 1777496170 | 13.33° C | 5% | 991.1 hPa | 0 mm | - | - | - |
| 1777495570 | 13.33° C | 5% | 991.1 hPa | 0 mm | - | - | - |
| 1777494970 | 13.33° C | 5% | 990.9 hPa | 0 mm | - | - | - |
| 1777494369 | 13.33° C | 5% | 990.9 hPa | 0 mm | - | - | - |
| 1777493770 | 13.33° C | 5% | 990.3 hPa | 0 mm | - | - | - |
| 1777493169 | 13.89° C | 5% | 990.3 hPa | 0 mm | - | - | - |
| 1777492569 | 13.89° C | 5% | 989.9 hPa | 0 mm | - | - | - |
| 1777491969 | 14.44° C | 5% | 989.9 hPa | 0 mm | - | - | - |
| 1777491369 | 14.44° C | 5% | 989.5 hPa | 0 mm | - | - | - |
| 1777490769 | 15° C | 5% | 989.5 hPa | 0 mm | - | - | - |
| 1777490174 | 15.56° C | 5% | 989.1 hPa | 0 mm | - | - | - |
| 1777489574 | 15.56° C | 5% | 989.1 hPa | 0 mm | - | - | - |
| 1777488974 | 15.56° C | 5% | 988.9 hPa | 0 mm | - | - | - |
| 1777488374 | 16.11° C | 5% | 988.9 hPa | 0 mm | - | - | - |
* Rain latest hour (hover to see other rain measurements)
** Current wind speed in m/s (hover to see current wind gust speed)